sat.trackr.live / text

‹ back to catalog

STARLINK-34725

NORAD 64843 · 2025-152B

PAYLOAD ACTIVE UNKNOWN

§ Identity

Operator
Country
US
Launch date
2025-07-19
Launch site
AFWTR
Launch vehicle
Mass (kg)
RCS (m²)

Purposes: comms

External: N2YO · Heavens-Above · Gunter

§ Orbital elements

Epoch: 2026-09-20T12:34:31.520352Z

Period
93.91 min
Inclination
97.2853°
Eccentricity
0.0002057
Mean motion
15.33446937 rev/d
Perigee alt
464.1 km
Apogee alt
466.9 km
Semi-major
6,843.7 km
B*
5.1236e-4
RAAN
114.0256°
Arg perigee
72.9634°
Mean anomaly
287.1834°
Rev number
6,482

§ Raw data

STARLINK-347251 64843U 25152B   26263.52397593  .00016504  00000+0  51236-3 0  99972 64843  97.2853 114.0256 0002057  72.9634 287.1834 15.33446937 64823

JSON: /api/v1/satellites/64843 · /tle

For live sub-satellite position, see the globe view (requires WebGL).

§ Visibility from observer

Set your observer location to see the next 7 days of passes ≥ 10°. The values pass through the URL so the page stays shareable.

No JS? Fill the form by hand. The geolocation button needs JavaScript.